Regional Weather Roundup
Issued by NWS Charleston, SC

Current Version | Previous Version | Graphics & Text | Print | Product List | Glossary On
Versions: 1 2 3 4 5 6 7 8 9 10 11 12 13 14 15 16 17 18 19 20 21 22 23 24 25 26 27 28 29 30 31 32 33 34 35 36 37 38 39 40 41 42 43 44 45 46 47 48 49 50
000
ASUS42 KCHS 291513
RWRCHS

REGIONAL WEATHER ROUNDUP
NATIONAL WEATHER SERVICE CHARLESTON SC
1100 AM EDT SUN MAY 29 2016

NOTE: "FAIR" INDICATES FEW OR NO CLOUDS BELOW 12,000 FEET WITH NO
SIGNIFICANT WEATHER AND/OR OBSTRUCTIONS TO VISIBILITY.

NOT ALL STATIONS ARE QUALITY CONTROLLED. USE DATA WITH CAUTION...
ESPECIALLY DEWPOINT OBSERVATIONS.

SCZ027-030-031-034>040-042>050-291600-
...SOUTHEAST SOUTH CAROLINA...

CITY           SKY/WX    TMP DP  RH WIND       PRES   REMARKS
N CHARLESTON   CLOUDY    75  72  90 S14G22    29.87R
WATERFRONT PRK   N/A     74  73  96 SW9       29.87R
MOUNT PLEASANT PTSUNNY   79  73  83 S12G25    29.90R
JOHNS ISLAND   CLOUDY    75  73  94 SW6G15    29.90S
PINOPOLIS        N/A     77  73  88 E18       29.78
MONCKS CORNER  CLOUDY    72  68  88 SE12G26   29.86R FOG
SUMMERVILLE    TSTM      73  73 100 N12G20    29.80F
BEAUFORT MCAS  CLOUDY    71  68  90 NW15G24   29.94F
BEAUFORT ARPT  CLOUDY    70  68  94 NW13G23   29.94S
HILTON HEAD IS RAIN      68  66  94 W12       29.98R
WALTERBORO     TSTM      72  72 100 NW16G22   29.92F
ALLENDALE      RAIN      68  66  94 NW12      29.99F

...SOUTHERN MIDLANDS AND PEE DEE...

CITY           SKY/WX    TMP DP  RH WIND       PRES   REMARKS
GEORGETOWN     CLOUDY    75  73  94 SE7       29.95S
KINGSTREE      RAIN      75  72  88 NE9       29.94F
ORANGEBURG     LGT RAIN  69  66  90 N17G29    29.98S
BARNWELL       DRIZZLE   70  70 100 NW17G24   30.02F
AIKEN          CLOUDY    64  61  88 N17G31    30.11S
MANNING        CLOUDY    72  70  94 N16G22    29.91F
COLUMBIA       HVY RAIN  70  67  90 NW9       30.03F FOG
SUMTER         CLOUDY    72  70  94 N15G22    29.98R
FLORENCE       PTSUNNY   79  72  79 NE15      30.00F
MYRTLE BEACH   MOSUNNY  N/A  70   0 E12G17    30.01R
N MYRTLE BEACH CLOUDY    79  73  82 E10G21    30.01R

$$

GAZ063-065-086>088-099>101-113>116-118-119-134>141-150-291600-
...SOUTHEAST GEORGIA...

CITY           SKY/WX    TMP DP  RH WIND       PRES   REMARKS
SAVANNAH ARPT  RAIN      69  66  90 NW26G35   30.00S FOG
HUNTER AAF     MOSUNNY   69  69 100 W13G20    29.99R
FORT STEWART   HVY RAIN  71  67  89 W12G20    30.04R
STATESBORO     RAIN      67  67  99 NW17      30.07R
SYLVANIA       LGT RAIN  68  65  92 NW17G30   30.05R
CLAXTON        RAIN      68  67  96 W9        30.08R

...CSRA...CENTRAL AND FAR SOUTHEAST GEORGIA...

CITY           SKY/WX    TMP DP  RH WIND       PRES   REMARKS
THOMSON        CLOUDY    69  68  98 N6        30.17R
AUGUSTA-BUSH   LGT RAIN  66  63  90 N16       30.09R
AUGUSTA-DANIEL LGT RAIN  66  61  84 N12G22    30.11R
SWAINSBORO     RAIN      68  64  88 N7G16     30.11S
VIDALIA        CLOUDY    70  63  78 N9        30.10S
EASTMAN        FAIR      79  65  61 NE7       30.14S
HAZLEHURST     FAIR      79  64  60 N10G17    30.10S
ALMA           CLOUDY    78  63  59 VRB7G17   30.10R
WAYCROSS       MOSUNNY   80  66  62 N14       30.10R
JESUP          FAIR      73  61  64 N14G21    30.08S
BAXLEY         FAIR      79  63  57 N13G21    30.10R
BRUNSWICK      CLOUDY    81  68  65 NW9G20    30.07S
SAINT SIMONS   PTSUNNY   78  66  66 W14G24    30.06R

$$

SCZ027-028-034-036>038-045-046-048>050-GAZ119-141-291600-
...LAKE AND SUPPLEMENTAL COASTAL OBSERVATIONS...

STATION/POSITION TIME  TEMP    WIND        PRES    WAVE   SWELL
                       AIR SEA DIR/SP/G            HT/PER HT/PER/DIR
                 (UTC) (F)     (DEG/KT/KT) (MB)    (FT/S) (FT/S/D)
WINYAH BAY       NOT AVBL
LAKE MURRAY      1400   67     330/  5/ 13 1017.9R
ACE BASIN NERRS  NOT AVBL
FORT PULASKI     1400   70 75  280/ 21/ 25 1015.5R
SAPELO ISLAND    1400   77     300/ 15     1017.0S

$$

ANZ835-935-AMZ111-154-330-350-352-354-370-450-454-472-291600-
...C-MAN AND BUOY OBSERVATIONS...

STATION/POSITION TIME  TEMP    WIND        PRES    WAVE   SWELL
                       AIR SEA DIR/SP/G            HT/PER HT/PER/DIR
                 (UTC) (F)     (DEG/KT/KT) (MB)    (FT/S) (FT/S/D)
BUOY 41004       1450   74 78  190/ 19/ 23 1013.9R   6/ 8   3/ 8
BUOY 41008       1450   74 75  290/ 23/ 27 1016.0R   4/ 5   2/ 90/ 8
FOLLY BEACH CMAN 1500   74     210/ 12/ 14 1012.8R
CAPERS NEARSHORE 1408   74 76  190/ 17/ 21 1012.4R
FRIPP NEARSHORE  1408   70 76  290/ 19/ 25 1013.0F


STATION/POSITION TIME  TEMP    WIND        PRES    WAVE   SWELL
                       AIR SEA DIR/SP/G            HT/PER HT/PER/DIR
                 (UTC) (F)     (DEG/KT/KT) (MB)    (FT/S) (FT/S/D)
5E ST. MARYS GA  1401      78                N/A     3/ 8
FRYING PAN BUOY  1400   79 78  150/ 19/ 23 1016.0S
BUOY 41025       1450   79 76  150/ 17/ 19 1019.3R   6/ 8   2/100/12
CAPE LOOKOUT NC  1400   75     130/  9/ 10 1018.2F
BUOY 41002       1450   76 76  120/ 14/ 16 1019.4S   4/ 6   3/100/ 6
BUOY 41010       1420   79 79  270/  8/ 10 1018.2F
ST AUGUSTINE FL  1500   79 79  300/  6/ 11 1019.4R


$$




USA.gov is the U.S. government's official web portal to all federal, state and local government web resources and services.